Location: Huberhof
(49.2050°N, 7.4980°E)
Time: 03:47:00
(UTC+00:00)

SeaSat 1 - Pass Details

Date: 29 October 2020
Orbit: 744 x 747 km, 108.0° (Epoch: 25 November)

Event Time Altitude Azimuth Distance (km) Brightness Sun altitude
Exits shadow 19:40:26 35° 280° (W) 1,188 3.8 -34.0°
Drops below altitude 10° 19:43:58 10° 318° (NW) 2,274 5.6 -34.6°
Sets 19:46:23 0° 326° (NW) 3,203 6.4 -34.9°
